Temp
12 12 11 10 9 9 9 8 8 7 7 7 6 7 7 7 7 7 7 7 7 7 7 7 7 8 8 8 8 9 10 12 12 12 12 13 13 13 13 13 13 14 15
12 11 10 9 8 8 7 7 6 7 6 6 6 5 6 6 6 7 7 7 7 7 7 6 6 7 7 7 7 8 9 10 12 12 12 12 13 12 13 13 13 13 13
12 11 10 9 9 9 8 8 7 7 6 6 6 6 7 7 7 6 6 6 6 6 6 6 6 6 6 7 6 6 7 9 10 11 12 13 13 14 12 12 12 12 12
12 11 11 10 10 9 8 6 6 6 7 6 6 6 6 6 6 5 5 5 5 6 6 6 6 6 6 7 7 6 6 7 8 10 11 11 11 12 13 11 11 11 11
13 12 11 10 9 8 7 7 7 6 6 6 5 5 5 5 5 5 5 5 5 5 6 6 6 5 6 6 6 7 5 5 6 7 9 11 11 11 11 12 12 12 13
12 11 10 10 9 8 7 6 6 6 6 5 5 5 5 4 4 4 5 4 4 4 4 5 5 5 5 6 6 5 6 5 5 6 7 9 11 11 11 11 11 13 13
12 11 10 9 8 7 7 6 6 6 5 5 4 4 4 3 3 4 4 4 3 3 3 3 3 4 4 5 5 5 5 5 5 5 6 7 8 11 11 11 12 13 14
11 10 9 8 7 7 6 5 5 5 4 4 3 3 3 3 3 3 3 2 3 3 2 2 3 3 3 3 4 5 5 5 5 5 5 6 7 8 10 11 12 12 12
11 9 8 7 6 6 5 5 4 4 4 3 3 3 2 2 2 2 1 1 2 2 2 2 1 2 2 2 3 4 4 5 4 4 5 6 7 7 9 10 11 11 11
10 9 8 7 6 5 5 4 4 3 3 2 2 2 1 1 1 1 1 1 1 1 1 1 1 1 1 2 3 4 4 4 4 4 4 6 6 7 8 9 10 10 11
9 8 7 6 5 5 4 3 3 3 2 2 1 1 0 0 0 0 0 0 0 -0 0 0 0 1 1 1 2 3 3 4 4 4 4 5 6 6 7 8 9 10 10
8 7 6 6 5 4 3 3 2 2 1 1 0 -0 -0 -0 -0 -0 -0 -0 -0 -0 -0 -0 -0 0 1 1 1 2 3 3 4 3 4 4 4 6 6 7 8 9 10
8 7 6 5 5 4 3 2 2 1 1 -0 -1 -1 -1 -1 -1 -1 -1 -1 -1 -1 -1 -1 -0 -0 0 0 1 1 2 3 3 3 2 3 4 4 5 6 8 9 9
8 6 5 5 4 3 2 1 1 0 -0 -1 -1 -2 -2 -2 -2 -2 -2 -2 -2 -2 -2 -2 -1 -1 -1 -0 0 1 1 2 3 2 2 2 3 3 5 6 7 9 9
6 5 4 3 3 2 1 1 -0 -1 -1 -2 -2 -2 -2 -2 -2 -2 -3 -3 -3 -3 -3 -3 -2 -2 -1 -1 0 1 1 1 2 2 2 2 2 3 3 4 5 7 9
5 4 3 2 2 1 0 -1 -1 -1 -2 -2 -3 -3 -3 -3 -3 -3 -3 -3 -4 -4 -4 -3 -3 -3 -2 -1 -0 0 -0 0 1 1 1 2 2 2 3 3 4 5 7
3 3 2 1 1 -0 -1 -1 -2 -2 -3 -3 -3 -3 -3 -3 -4 -4 -4 -4 -4 -4 -4 -4 -3 -3 -3 -1 -1 -0 -0 0 0 1 2 2 3 3 3 3 4 6 7
2 2 1 0 -0 -1 -2 -2 -3 -3 -3 -3 -3 -3 -4 -4 -4 -5 -4 -4 -4 -4 -4 -4 -3 -3 -3 -1 -1 -0 -0 -0 -0 1 1 2 2 2 3 3 4 6 7
1 0 -0 -1 -2 -2 -2 -3 -3 -3 -3 -3 -4 -4 -5 -5 -5 -5 -5 -5 -5 -4 -4 -4 -3 -3 -2 -2 -1 -1 -1 -1 -0 0 1 1 1 2 3 3 4 6 7
-0 -1 -2 -2 -2 -2 -3 -3 -4 -4 -4 -4 -5 -5 -5 -5 -5 -5 -5 -5 -5 -4 -4 -3 -3 -3 -2 -2 -1 -1 -1 -0 -0 0 1 2 2 2 2 3 4 5 6
-1 -2 -2 -3 -3 -3 -3 -4 -4 -4 -4 -5 -5 -6 -6 -6 -6 -5 -5 -5 -5 -4 -3 -3 -3 -2 -2 -2 -1 -1 -0 -0 0 1 1 1 2 2 3 3 4 5 4
-2 -3 -3 -4 -4 -3 -4 -4 -4 -5 -5 -6 -6 -6 -6 -6 -6 -6 -5 -5 -5 -4 -3 -3 -2 -2 -1 -1 -1 -0 0 0 0 1 1 1 2 2 3 3 4 3 3
-3 -3 -4 -4 -4 -4 -4 -5 -5 -5 -6 -6 -6 -7 -7 -6 -6 -6 -6 -5 -4 -4 -3 -2 -2 -1 -1 -1 -1 -1 -0 -0 0 1 1 1 2 4 4 4 2 1 1
-4 -4 -4 -5 -5 -5 -5 -5 -6 -6 -6 -7 -7 -7 -7 -6 -6 -6 -6 -5 -5 -4 -3 -2 -1 -1 -1 -1 -1 -1 -1 -0 0 1 1 1 1 2 1 0 -1 -0 -0
-5 -5 -5 -5 -5 -6 -6 -6 -6 -7 -7 -7 -7 -7 -7 -7 -6 -6 -6 -6 -5 -4 -3 -3 -2 -1 -1 -1 -1 -1 -1 -1 0 -0 -1 -2 -2 -3 -3 -2 -2 -2 -2
-5 -5 -6 -6 -6 -6 -7 -7 -7 -7 -7 -7 -7 -7 -7 -7 -6 -6 -6 -5 -4 -4 -3 -2 -2 -1 -1 -1 -1 -1 -1 -1 -1 -2 -3 -3 -3 -3 -3 -4 -4 -4 -4
Height
846 847 848 849 850 849 849 849 848 846 843 843 841 838 833 830 827 824 818 815 811 808 806 805 803 800 797 794 792 788 785 782 782 781 780 779 779 780 780 780 780 782 783
846 848 849 849 850 850 849 848 846 845 843 841 839 837 833 828 824 822 820 816 813 810 806 803 801 798 796 793 791 789 785 781 780 779 777 776 774 773 772 774 774 776 779
844 846 847 848 848 849 848 847 846 845 844 841 839 836 834 830 825 821 818 815 812 809 805 801 799 797 794 791 789 788 786 782 779 778 778 774 769 766 767 768 770 771 772
846 848 848 849 848 848 847 846 845 844 842 841 837 834 831 828 825 819 814 812 809 805 803 799 797 794 792 789 786 784 782 780 776 775 772 772 773 769 768 767 767 769 770
845 847 849 850 850 849 848 845 842 842 840 838 836 832 828 826 822 817 812 808 805 802 799 796 793 791 789 787 784 781 779 777 775 774 771 769 768 769 770 767 766 767 767
845 848 849 849 849 848 847 845 842 840 839 835 833 829 825 822 818 814 809 804 801 799 795 793 790 787 785 783 780 779 777 775 773 771 769 768 765 764 766 767 765 765 765
845 847 848 848 848 848 847 844 840 837 835 833 829 826 822 818 815 811 806 801 797 795 791 789 786 782 781 779 777 775 774 771 769 768 766 765 762 761 761 761 760 759 761
844 847 849 849 847 846 845 842 838 835 832 829 826 822 819 814 811 808 804 799 794 791 788 785 783 780 777 775 773 770 769 767 767 764 762 760 759 759 758 757 758 758 759
844 847 848 848 847 845 843 839 836 832 829 826 822 818 815 811 807 803 801 796 791 787 784 781 778 775 773 771 769 766 765 763 762 759 757 756 755 755 755 753 753 754 756
844 846 847 847 846 844 841 838 834 830 827 823 820 815 811 807 803 799 796 792 787 783 780 777 774 771 768 766 764 762 760 759 758 756 754 752 751 750 751 750 751 750 751
844 845 846 846 844 842 839 836 832 828 825 820 816 812 808 803 799 795 792 788 783 779 776 772 769 767 764 762 759 757 756 754 752 752 750 748 747 745 745 747 746 746 746
845 846 845 844 841 839 837 834 830 826 822 819 813 808 804 798 794 791 788 784 779 774 771 768 764 762 759 756 754 752 750 748 746 747 746 743 742 741 741 741 740 741 742
844 844 844 842 840 837 835 831 827 824 820 816 811 805 800 794 790 787 784 779 775 770 767 763 760 757 754 751 749 747 744 743 740 740 739 738 738 737 735 734 733 734 737
842 844 844 842 839 835 832 829 824 821 817 814 808 803 796 791 787 783 778 774 770 766 762 759 755 751 748 746 743 741 739 737 734 734 733 732 731 731 729 729 728 729 730
842 845 844 840 837 834 831 827 822 817 814 810 805 799 793 787 783 779 774 769 765 760 757 753 749 745 742 738 736 735 733 731 728 727 726 725 723 724 723 723 723 723 723
845 845 843 840 836 833 827 823 820 814 811 807 801 796 790 783 779 774 769 764 760 755 751 747 743 738 735 732 729 727 725 724 722 720 719 717 716 716 716 715 717 718 719
843 843 842 839 835 831 827 821 818 812 807 803 798 792 786 780 775 770 764 759 754 749 744 740 737 732 728 725 722 720 717 715 714 712 711 710 709 709 708 707 707 708 709
843 841 837 835 832 829 824 819 815 810 804 799 794 789 783 777 770 765 759 754 749 744 738 734 730 725 720 717 714 712 710 707 704 703 702 701 700 701 701 700 700 700 701
842 841 838 833 829 826 821 816 812 807 801 796 790 785 780 773 767 760 754 748 743 737 731 727 722 718 712 710 707 704 701 698 695 694 692 691 690 690 693 694 694 693 693
841 838 835 834 827 823 819 813 809 803 797 792 786 781 775 769 762 756 749 743 738 731 725 719 715 710 705 701 698 695 692 689 686 684 681 680 679 679 682 685 686 687 687
840 838 833 831 826 820 817 811 806 800 794 788 782 777 771 764 757 750 744 737 731 725 719 713 707 702 697 692 689 686 683 680 677 675 673 671 669 669 671 674 677 678 682
837 836 831 828 825 817 813 808 802 796 791 784 778 772 766 759 751 745 738 732 725 718 711 705 699 694 689 685 681 678 674 672 669 666 663 661 660 659 661 664 668 672 676
837 835 829 826 822 815 810 805 798 793 787 780 773 767 761 753 747 740 733 726 720 713 706 700 693 686 681 678 673 670 666 663 660 658 655 653 649 647 651 655 661 667 672
835 833 826 823 818 813 807 802 796 790 784 777 770 763 756 748 741 735 729 722 715 709 702 696 688 680 673 669 666 662 659 655 652 649 647 647 646 645 648 657 663 667 672
833 830 825 822 815 810 804 799 794 788 782 775 767 758 752 744 735 729 723 717 710 705 697 690 683 674 667 663 661 658 654 651 647 646 645 647 648 651 654 660 665 669 674
832 828 822 820 814 808 802 796 792 786 779 771 762 755 747 739 732 724 714 710 704 697 690 683 677 669 663 658 655 652 650 649 648 648 649 651 653 655 658 663 668 674 678
Wind_Speed
6 6 8 9 9 10 10 11 12 13 15 16 19 19 18 17 18 16 17 17 19 19 18 16 17 17 15 15 15 16 17 14 12 9 11 17 22 23 20 20 21 22 23
5 7 6 7 7 6 7 8 11 15 15 14 14 13 17 17 18 17 19 16 17 17 16 17 16 16 17 15 14 14 15 17 13 7 5 2 9 14 23 23 19 20 20
4 4 4 4 3 4 5 7 9 11 11 12 13 14 16 15 16 17 18 18 20 18 16 16 16 16 15 16 14 14 13 14 16 14 9 3 3 1 5 12 17 18 18
4 3 1 1 3 4 8 10 9 11 12 14 14 15 17 20 20 20 20 22 20 20 17 16 16 16 16 16 15 12 14 14 14 19 15 20 11 2 2 4 9 14 20
3 1 1 2 4 9 11 10 10 12 14 15 15 17 18 20 23 22 22 21 21 18 19 17 16 17 16 17 16 15 14 15 15 16 17 15 16 16 5 4 4 7 12
2 1 2 5 8 9 9 11 13 15 17 17 18 19 20 23 24 25 23 20 19 21 18 18 17 17 18 18 17 17 16 16 17 18 19 17 8 8 8 5 6 8 10
4 4 6 8 8 10 12 14 16 18 19 20 20 20 21 21 23 23 24 22 22 20 20 19 20 19 19 20 20 20 18 17 16 18 18 21 19 18 16 14 9 5 9
5 4 6 8 10 12 14 16 18 20 21 22 22 22 21 21 22 22 24 24 23 22 21 21 21 21 20 22 21 20 20 18 19 18 19 20 20 20 19 18 13 4 6
3 5 7 9 12 14 16 18 20 21 22 22 22 23 23 22 23 24 25 24 23 23 23 22 23 22 22 21 21 21 21 19 19 21 20 21 21 20 21 19 17 11 4
5 6 9 11 14 16 18 19 20 21 22 22 22 23 25 24 24 24 25 25 24 23 23 23 22 23 22 22 21 22 20 20 19 19 20 20 21 22 20 20 20 20 16
7 7 10 13 16 18 20 21 21 22 23 23 24 25 26 25 25 25 25 24 23 23 24 23 23 23 23 22 22 22 21 23 20 19 20 20 17 18 21 19 19 22 20
7 9 13 15 17 19 20 22 22 23 24 25 25 26 26 25 25 25 25 24 23 23 24 24 24 24 24 23 23 23 23 23 20 20 19 21 20 19 19 22 21 21 19
9 10 14 17 19 20 21 22 22 24 25 26 26 27 26 25 26 26 26 25 24 24 24 24 25 25 24 24 24 24 25 25 23 21 20 20 20 21 18 21 22 22 21
10 10 13 19 20 20 22 23 24 24 26 26 27 27 26 25 26 27 26 26 25 26 25 25 26 27 26 25 25 24 25 25 25 23 22 22 22 23 21 20 20 21 21
11 12 14 19 21 22 22 24 25 25 26 27 27 27 27 26 26 26 25 26 26 26 27 27 26 26 27 25 24 23 23 23 23 23 24 24 24 26 27 23 22 20 22
11 14 18 21 21 23 23 25 26 26 27 28 27 28 27 26 26 26 26 27 27 27 27 27 27 28 27 26 26 26 25 25 25 24 25 26 26 27 28 29 31 34 23
13 15 18 21 22 23 25 25 27 27 27 27 28 28 27 27 27 28 28 28 28 28 27 27 28 28 28 27 26 26 26 25 26 26 26 25 25 26 25 26 27 29 30
13 15 19 21 23 24 24 25 26 27 26 26 27 27 28 28 29 30 29 29 28 27 28 28 28 28 29 27 27 27 28 28 29 28 28 29 28 27 25 24 24 26 28
15 18 21 22 23 23 23 24 26 26 26 26 27 29 29 29 30 30 30 30 30 29 28 27 28 28 30 29 28 28 27 27 29 28 30 31 31 31 29 28 27 23 23
17 19 22 23 22 22 23 24 26 25 25 26 29 30 30 30 30 31 31 30 29 29 28 28 28 30 31 30 28 27 26 25 25 27 26 28 32 31 31 28 26 21 23
17 19 20 22 23 23 23 23 25 25 27 29 30 30 31 31 30 31 30 29 30 29 28 28 29 28 27 28 26 25 26 24 23 23 25 25 28 30 34 34 29 29 28
19 20 20 22 25 23 23 25 25 27 28 29 30 30 32 31 31 30 30 29 28 28 26 26 27 25 26 22 24 23 25 24 25 24 24 26 27 30 32 32 28 30 36
19 20 20 23 24 23 23 25 27 28 29 29 30 32 33 32 30 28 29 28 26 24 24 23 24 25 23 25 23 23 22 22 24 26 27 27 27 26 28 28 36 36 37
19 21 21 22 25 25 25 26 28 28 29 30 32 33 32 32 30 28 27 25 24 24 23 24 26 27 24 23 22 21 21 19 17 17 17 15 18 26 33 31 24 31 32
19 21 21 23 25 26 27 27 28 28 29 31 32 32 30 29 30 28 27 27 28 27 28 29 29 24 22 21 22 20 19 14 5 20 23 19 22 23 25 25 28 30 32
20 20 22 24 26 27 27 27 27 27 29 32 30 31 31 29 28 29 32 27 26 28 30 31 31 28 24 22 17 12 8 6 17 16 14 12 13 17 20 23 25 26 31
Wind_Direction
125 101 70 61 58 54 46 33 21 15 13 6 356 347 347 337 341 338 344 340 343 344 344 334 332 333 326 320 316 309 309 295 278 264 280 270 251 244 245 251 256 261 263
138 99 82 75 69 54 30 13 2 355 353 346 334 324 330 326 329 323 328 329 331 328 328 326 323 321 322 318 315 317 309 303 283 266 247 270 225 240 240 237 239 255 247
159 128 100 89 86 33 19 358 345 334 333 335 330 327 320 315 316 319 316 316 318 314 314 315 313 312 312 309 310 305 306 300 298 273 252 248 244 188 230 238 233 244 242
151 124 110 44 20 351 343 343 345 338 328 325 323 322 317 312 311 309 308 309 311 307 305 304 303 304 303 301 302 305 294 299 297 299 263 257 258 322 287 256 230 241 248
190 153 40 10 339 340 334 331 329 325 321 318 316 314 309 306 306 305 304 305 306 304 304 300 299 302 299 296 297 298 298 285 295 293 295 265 250 243 240 256 206 239 262
192 239 282 312 327 330 332 330 327 321 319 317 314 310 308 308 307 306 306 307 306 305 303 302 300 299 297 295 297 296 289 285 282 285 289 292 248 219 222 234 250 266 261
232 252 303 310 328 327 325 324 324 319 318 315 313 310 308 305 303 304 305 306 306 304 303 303 301 298 297 294 291 290 287 281 278 277 280 283 294 252 237 236 248 238 240
240 283 312 321 322 322 323 324 321 317 317 314 313 311 308 306 304 302 302 301 300 300 300 299 297 295 294 292 287 284 285 279 275 275 271 273 276 285 261 245 239 242 229
264 288 307 309 318 321 320 319 317 315 315 315 314 311 309 308 305 303 300 298 298 299 299 297 297 295 293 289 285 279 281 278 277 275 276 268 265 270 278 265 240 227 228
278 296 302 313 317 317 318 318 317 314 314 315 313 311 309 307 305 303 298 297 298 298 298 297 295 294 292 289 284 279 276 274 272 273 276 268 264 267 268 267 261 236 232
302 309 310 314 315 317 319 318 317 318 316 316 314 312 310 308 306 301 299 298 299 299 298 296 295 292 290 288 285 278 275 273 270 271 269 276 269 263 264 265 259 254 231
305 308 311 313 315 318 319 317 318 318 317 315 314 312 310 309 306 303 301 301 299 299 298 296 293 290 287 286 283 281 276 274 267 270 271 270 275 271 266 255 256 259 252
304 314 314 317 318 320 319 318 320 318 318 316 315 312 311 310 307 305 304 303 301 299 298 296 293 290 287 283 280 278 277 274 270 266 271 272 269 270 265 266 245 239 244
312 317 318 319 320 321 319 319 319 319 318 316 314 312 311 310 307 305 305 304 303 302 300 297 294 291 287 282 278 274 273 273 271 263 265 268 266 266 266 265 276 242 229
321 321 320 321 322 322 322 320 319 320 319 315 314 312 311 309 306 306 305 304 303 301 298 296 294 292 287 282 277 276 276 275 269 263 265 268 266 265 266 268 265 276 222
320 321 320 320 323 323 321 320 318 319 319 314 313 313 312 311 309 306 305 304 302 299 296 293 291 289 287 282 279 276 274 271 269 266 265 269 269 266 265 264 259 259 255
322 321 320 321 321 321 319 318 316 317 316 314 314 314 314 312 310 308 306 304 302 300 294 292 290 288 286 283 280 277 274 271 270 266 266 265 263 263 265 266 262 259 261
324 321 320 319 319 318 317 316 315 316 315 314 313 315 316 312 310 307 304 303 302 298 295 291 288 285 281 283 282 279 275 272 269 267 266 266 264 261 261 263 266 258 253
322 319 318 317 317 316 317 316 314 315 314 314 317 317 315 311 307 304 303 302 300 297 294 290 288 284 282 286 282 279 276 271 270 268 267 261 258 256 251 253 255 261 240
323 321 319 315 316 318 319 317 315 315 314 319 317 315 314 310 306 304 302 301 298 293 293 292 289 287 286 287 283 280 275 270 267 268 268 268 256 252 248 244 245 239 212
323 320 318 315 315 319 319 315 315 315 317 317 315 314 313 310 307 304 301 300 297 294 293 292 290 290 288 285 285 283 277 269 267 262 264 265 261 250 246 242 242 217 201
324 322 320 317 316 321 321 318 316 318 317 317 315 315 314 312 309 305 302 300 298 295 294 295 292 290 289 286 292 286 281 274 268 265 265 267 265 256 250 242 218 180 169
323 320 320 316 316 321 323 319 318 320 319 317 315 314 313 311 308 306 303 302 299 297 298 297 294 292 293 295 289 289 286 280 270 263 264 269 269 252 238 194 159 158 156
322 319 322 318 317 322 323 320 320 321 320 316 315 313 313 312 311 305 302 299 300 300 298 297 297 296 296 294 292 299 300 294 278 262 252 158 127 123 124 129 139 146 145
320 322 322 318 318 321 320 322 321 323 319 315 314 314 313 309 309 307 304 301 295 294 296 296 298 298 294 293 297 296 296 296 186 133 124 117 117 113 113 114 121 126 128
322 321 323 319 320 321 320 322 323 322 317 314 315 314 313 312 310 307 305 305 302 304 304 302 302 307 299 300 301 297 288 181 150 127 106 99 114 119 122 118 111 116 121